Time,TemperatureF,DewpointF,PressureIn,WindDirection,WindDirectionDegrees,WindSpeedMPH,WindSpeedGustMPH,Humidity,HourlyPrecipIn,Conditions,Clouds,dailyrainin,SoftwareType,DateUTC
2013-03-13 00:00:00,74.0,70.6,29.74,WSW,243,0.0,4.0,89,0.00,BKN,,0.00,WeatherDisplay:10.37,2013-03-12 14:00:00,
2013-03-13 00:10:00,74.1,70.6,29.75,SSW,199,1.0,4.0,89,0.01,RA,,0.02,WeatherDisplay:10.37,2013-03-12 14:10:00,
2013-03-13 00:15:00,73.9,70.5,29.74,SW,214,0.0,3.0,89,0.01,RA,,0.02,WeatherDisplay:10.37,2013-03-12 14:15:00,
2013-03-13 00:20:00,73.8,70.7,29.74,SW,230,1.0,4.0,90,0.00,RA,,0.02,WeatherDisplay:10.37,2013-03-12 14:20:00,
2013-03-13 00:30:00,73.4,70.3,29.74,SW,232,1.0,6.0,90,0.00,RA,,0.02,WeatherDisplay:10.37,2013-03-12 14:30:00,
2013-03-13 00:40:00,73.1,70.0,29.73,SW,234,1.0,6.0,90,0.00,RA,,0.02,WeatherDisplay:10.37,2013-03-12 14:40:00,
2013-03-13 00:45:00,73.1,70.0,29.73,SW,234,0.0,3.0,90,0.00,RA,,0.02,WeatherDisplay:10.37,2013-03-12 14:45:00,
2013-03-13 00:50:00,73.1,70.0,29.72,SW,227,1.0,2.0,90,0.00,RA,,0.02,WeatherDisplay:10.37,2013-03-12 14:50:00,
2013-03-13 00:55:00,73.0,69.9,29.72,SW,221,0.0,2.0,90,0.00,RA,,0.02,WeatherDisplay:10.37,2013-03-12 14:55:00,
2013-03-13 01:05:00,73.0,69.9,29.71,SW,224,0.0,3.0,90,0.00,RA,,0.02,WeatherDisplay:10.37,2013-03-12 15:05:00,
2013-03-13 01:15:00,73.0,69.9,29.72,SW,229,0.0,2.0,90,0.00,RA,,0.02,WeatherDisplay:10.37,2013-03-12 15:15:00,
2013-03-13 01:20:00,73.1,70.3,29.71,SW,232,3.0,7.0,91,0.02,RA,,0.04,WeatherDisplay:10.37,2013-03-12 15:20:00,
2013-03-13 01:25:00,73.1,70.3,29.71,SW,229,2.0,5.0,91,0.01,RA,,0.05,WeatherDisplay:10.37,2013-03-12 15:25:00,
2013-03-13 01:30:00,73.1,70.3,29.71,SW,229,3.0,7.0,91,0.00,RA,,0.05,WeatherDisplay:10.37,2013-03-12 15:30:00,
2013-03-13 01:35:00,73.1,70.3,29.71,SW,234,1.0,5.0,91,0.00,RA,,0.05,WeatherDisplay:10.37,2013-03-12 15:35:00,
2013-03-13 01:40:00,73.2,70.4,29.71,SW,219,1.0,6.0,91,0.00,RA,,0.05,WeatherDisplay:10.37,2013-03-12 15:40:00,
2013-03-13 01:50:00,73.3,70.5,29.72,SSW,210,1.0,6.0,91,0.00,RA,,0.05,WeatherDisplay:10.37,2013-03-12 15:50:00,
2013-03-13 01:55:00,73.2,70.4,29.72,SW,218,0.0,4.0,91,0.00,RA,,0.05,WeatherDisplay:10.37,2013-03-12 15:55:00,
2013-03-13 02:00:00,73.2,70.4,29.71,WSW,242,2.0,6.0,91,0.00,RA,,0.05,WeatherDisplay:10.37,2013-03-12 16:00:00,
2013-03-13 02:10:00,73.1,70.3,29.71,SW,222,1.0,5.0,91,0.00,RA,,0.05,WeatherDisplay:10.37,2013-03-12 16:10:00,
2013-03-13 02:20:00,73.1,70.3,29.71,SSW,211,0.0,4.0,91,0.01,RA,,0.06,WeatherDisplay:10.37,2013-03-12 16:20:00,
2013-03-13 02:25:00,73.0,70.2,29.71,SW,220,0.0,5.0,91,0.01,RA,,0.06,WeatherDisplay:10.37,2013-03-12 16:25:00,
2013-03-13 02:30:00,72.9,70.1,29.70,SW,229,0.0,4.0,91,0.01,RA,,0.07,WeatherDisplay:10.37,2013-03-12 16:30:00,
2013-03-13 02:40:00,72.8,70.0,29.70,SW,232,0.0,1.0,91,0.01,RA,,0.08,WeatherDisplay:10.37,2013-03-12 16:40:00,
2013-03-13 02:50:00,72.7,70.3,29.69,SW,231,0.0,3.0,92,0.00,RA,,0.08,WeatherDisplay:10.37,2013-03-12 16:50:00,
2013-03-13 02:55:00,72.7,70.2,29.68,SW,232,1.0,3.0,92,0.00,RA,,0.08,WeatherDisplay:10.37,2013-03-12 16:55:00,
2013-03-13 03:00:00,72.6,69.8,29.68,SW,233,0.0,1.0,91,0.00,RA,,0.08,WeatherDisplay:10.37,2013-03-12 17:00:00,
2013-03-13 03:10:00,72.6,70.2,29.68,SSW,211,0.0,3.0,92,0.00,RA,,0.08,WeatherDisplay:10.37,2013-03-12 17:10:00,
2013-03-13 03:15:00,72.7,70.2,29.68,SSW,195,0.0,4.0,92,0.00,RA,,0.08,WeatherDisplay:10.37,2013-03-12 17:15:00,
2013-03-13 03:20:00,72.7,70.2,29.68,South,182,0.0,1.0,92,0.00,RA,,0.08,WeatherDisplay:10.37,2013-03-12 17:20:00,
2013-03-13 03:25:00,72.8,70.3,29.68,SW,218,0.0,3.0,92,0.00,RA,,0.08,WeatherDisplay:10.37,2013-03-12 17:25:00,
2013-03-13 03:30:00,72.8,70.4,29.67,WSW,238,1.0,4.0,92,0.00,RA,,0.08,WeatherDisplay:10.37,2013-03-12 17:30:00,
2013-03-13 03:35:00,72.9,70.4,29.67,SW,230,0.0,3.0,92,0.00,RA,,0.08,WeatherDisplay:10.37,2013-03-12 17:35:00,
2013-03-13 03:40:00,73.0,70.5,29.67,SW,231,0.0,1.0,92,0.00,RA,,0.08,WeatherDisplay:10.37,2013-03-12 17:40:00,
2013-03-13 03:45:00,73.0,70.6,29.67,SW,228,0.0,3.0,92,0.00,RA,,0.08,WeatherDisplay:10.37,2013-03-12 17:45:00,
2013-03-13 03:50:00,73.0,70.6,29.68,SW,225,0.0,3.0,92,0.00,RA,,0.08,WeatherDisplay:10.37,2013-03-12 17:50:00,
2013-03-13 03:55:00,73.0,70.5,29.68,SSW,200,0.0,3.0,92,0.01,RA,,0.09,WeatherDisplay:10.37,2013-03-12 17:55:00,
2013-03-13 04:00:00,73.0,70.5,29.68,SSW,201,0.0,3.0,92,0.01,RA,,0.09,WeatherDisplay:10.37,2013-03-12 18:00:00,
2013-03-13 04:10:00,73.0,70.5,29.68,South,190,0.0,4.0,92,0.02,RA,,0.11,WeatherDisplay:10.37,2013-03-12 18:10:00,
2013-03-13 04:15:00,73.0,70.5,29.68,SSE,157,1.0,3.0,92,0.02,RA,,0.13,WeatherDisplay:10.37,2013-03-12 18:15:00,
2013-03-13 04:20:00,73.0,70.5,29.68,South,181,0.0,5.0,92,0.01,RA,,0.14,WeatherDisplay:10.37,2013-03-12 18:20:00,
2013-03-13 04:25:00,73.0,70.5,29.68,SSW,205,0.0,3.0,92,0.00,RA,,0.14,WeatherDisplay:10.37,2013-03-12 18:25:00,
2013-03-13 04:30:00,73.0,70.5,29.68,SW,229,0.0,6.0,92,0.00,RA,,0.14,WeatherDisplay:10.37,2013-03-12 18:30:00,
2013-03-13 04:35:00,73.0,70.5,29.69,WSW,245,0.0,2.0,92,0.00,RA,,0.14,WeatherDisplay:10.37,2013-03-12 18:35:00,
2013-03-13 04:40:00,72.9,70.4,29.68,WSW,240,0.0,2.0,92,0.00,RA,,0.14,WeatherDisplay:10.37,2013-03-12 18:40:00,
2013-03-13 04:45:00,72.9,70.4,29.68,SW,232,1.0,3.0,92,0.00,RA,,0.14,WeatherDisplay:10.37,2013-03-12 18:45:00,
2013-03-13 04:50:00,72.9,70.4,29.68,SW,217,0.0,5.0,92,0.00,RA,,0.14,WeatherDisplay:10.37,2013-03-12 18:50:00,
2013-03-13 05:00:00,72.9,70.5,29.69,SSW,210,0.0,2.0,92,0.00,RA,,0.14,WeatherDisplay:10.37,2013-03-12 19:00:00,
2013-03-13 05:10:00,73.0,70.5,29.69,SSW,204,1.0,4.0,92,0.00,RA,,0.14,WeatherDisplay:10.37,2013-03-12 19:10:00,
2013-03-13 05:15:00,73.0,70.6,29.69,SW,220,0.0,2.0,92,0.00,RA,,0.14,WeatherDisplay:10.37,2013-03-12 19:15:00,
2013-03-13 05:20:00,73.1,70.6,29.69,SW,226,0.0,2.0,92,0.00,RA,,0.14,WeatherDisplay:10.37,2013-03-12 19:20:00,
2013-03-13 05:25:00,73.1,70.6,29.69,SW,225,1.0,2.0,92,0.00,RA,,0.14,WeatherDisplay:10.37,2013-03-12 19:25:00,
2013-03-13 05:30:00,73.1,70.6,29.69,SW,223,0.0,2.0,92,0.00,RA,,0.14,WeatherDisplay:10.37,2013-03-12 19:30:00,
2013-03-13 05:35:00,73.0,70.6,29.69,SW,224,0.0,3.0,92,0.00,RA,,0.14,WeatherDisplay:10.37,2013-03-12 19:35:00,
2013-03-13 05:45:00,73.0,70.6,29.69,SW,231,0.0,3.0,92,0.00,RA,,0.14,WeatherDisplay:10.37,2013-03-12 19:45:00,
2013-03-13 05:50:00,73.1,70.6,29.70,SW,224,1.0,3.0,92,0.00,RA,,0.14,WeatherDisplay:10.37,2013-03-12 19:50:00,
2013-03-13 05:55:00,73.1,70.6,29.70,SW,228,0.0,4.0,92,0.00,RA,,0.14,WeatherDisplay:10.37,2013-03-12 19:55:00,
2013-03-13 06:00:00,73.1,70.6,29.70,SW,235,0.0,4.0,92,0.00,RA,,0.14,WeatherDisplay:10.37,2013-03-12 20:00:00,
2013-03-13 06:10:00,73.1,70.6,29.70,SW,226,0.0,2.0,92,0.00,RA,,0.14,WeatherDisplay:10.37,2013-03-12 20:10:00,
2013-03-13 06:15:00,73.0,70.6,29.70,SW,231,0.0,5.0,92,0.00,RA,,0.14,WeatherDisplay:10.37,2013-03-12 20:15:00,
2013-03-13 06:20:00,73.0,70.6,29.70,WSW,238,0.0,2.0,92,0.00,RA,,0.14,WeatherDisplay:10.37,2013-03-12 20:20:00,
2013-03-13 06:25:00,73.0,70.5,29.70,WSW,245,0.0,2.0,92,0.00,RA,,0.14,WeatherDisplay:10.37,2013-03-12 20:25:00,
2013-03-13 06:30:00,73.0,70.6,29.70,SW,232,0.0,4.0,92,0.00,RA,,0.14,WeatherDisplay:10.37,2013-03-12 20:30:00,
2013-03-13 06:35:00,73.1,70.6,29.70,SW,222,0.0,3.0,92,0.00,RA,,0.14,WeatherDisplay:10.37,2013-03-12 20:35:00,
2013-03-13 06:40:00,73.1,70.6,29.70,SW,227,0.0,6.0,92,0.00,RA,,0.14,WeatherDisplay:10.37,2013-03-12 20:40:00,
2013-03-13 06:45:00,73.2,70.7,29.70,SW,225,0.0,3.0,92,0.00,RA,,0.14,WeatherDisplay:10.37,2013-03-12 20:45:00,
2013-03-13 06:50:00,73.3,70.8,29.70,SW,215,0.0,5.0,92,0.00,RA,,0.14,WeatherDisplay:10.37,2013-03-12 20:50:00,
2013-03-13 06:55:00,73.3,70.8,29.70,SSW,213,0.0,3.0,92,0.00,RA,,0.14,WeatherDisplay:10.37,2013-03-12 20:55:00,
2013-03-13 07:00:00,73.4,70.9,29.70,SSW,212,0.0,3.0,92,0.00,RA,,0.14,WeatherDisplay:10.37,2013-03-12 21:00:00,
2013-03-13 07:10:00,73.5,71.1,29.71,SW,217,1.0,3.0,92,0.01,RA,,0.15,WeatherDisplay:10.37,2013-03-12 21:10:00,
2013-03-13 07:15:00,73.6,71.1,29.71,SW,215,1.0,9.0,92,0.00,RA,,0.15,WeatherDisplay:10.37,2013-03-12 21:15:00,
2013-03-13 07:20:00,73.7,71.2,29.71,SW,216,1.0,6.0,92,0.00,RA,,0.15,WeatherDisplay:10.37,2013-03-12 21:20:00,
2013-03-13 07:30:00,74.0,71.2,29.71,SW,232,2.0,6.0,91,0.00,RA,,0.15,WeatherDisplay:10.37,2013-03-12 21:30:00,
2013-03-13 07:35:00,74.2,71.7,29.72,SW,235,2.0,4.0,92,0.00,RA,,0.15,WeatherDisplay:10.37,2013-03-12 21:35:00,
2013-03-13 07:40:00,74.2,71.4,29.71,SW,231,2.0,5.0,91,0.00,RA,,0.15,WeatherDisplay:10.37,2013-03-12 21:40:00,
2013-03-13 07:45:00,74.5,71.7,29.72,SW,222,2.0,6.0,91,0.00,RA,,0.15,WeatherDisplay:10.37,2013-03-12 21:45:00,
2013-03-13 07:55:00,75.0,71.9,29.71,SW,225,2.0,7.0,90,0.00,RA,,0.15,WeatherDisplay:10.37,2013-03-12 21:55:00,
2013-03-13 08:00:00,75.4,72.2,29.72,SSW,209,1.0,5.0,90,0.00,RA,,0.15,WeatherDisplay:10.37,2013-03-12 22:00:00,
2013-03-13 08:10:00,76.0,72.5,29.72,SSW,213,1.0,9.0,89,0.00,RA,,0.15,WeatherDisplay:10.37,2013-03-12 22:10:00,
2013-03-13 08:15:00,76.1,72.6,29.72,SW,219,2.0,7.0,89,0.00,RA,,0.15,WeatherDisplay:10.37,2013-03-12 22:15:00,
2013-03-13 08:20:00,76.2,72.7,29.72,SW,222,2.0,6.0,89,0.00,RA,,0.15,WeatherDisplay:10.37,2013-03-12 22:20:00,
2013-03-13 08:25:00,76.4,72.9,29.73,SW,227,1.0,5.0,89,0.00,RA,,0.15,WeatherDisplay:10.37,2013-03-12 22:25:00,
2013-03-13 08:30:00,76.5,73.0,29.73,SW,231,2.0,5.0,89,0.00,RA,,0.15,WeatherDisplay:10.37,2013-03-12 22:30:00,
2013-03-13 08:35:00,76.9,73.4,29.73,SW,231,2.0,6.0,89,0.00,RA,,0.15,WeatherDisplay:10.37,2013-03-12 22:35:00,
2013-03-13 08:40:00,76.9,73.1,29.73,SW,217,1.0,5.0,88,0.00,RA,,0.15,WeatherDisplay:10.37,2013-03-12 22:40:00,
2013-03-13 08:45:00,76.9,73.1,29.73,SSW,197,1.0,5.0,88,0.00,RA,,0.15,WeatherDisplay:10.37,2013-03-12 22:45:00,
2013-03-13 08:55:00,76.6,72.8,29.74,SW,225,1.0,5.0,88,0.00,RA,,0.15,WeatherDisplay:10.37,2013-03-12 22:55:00,
2013-03-13 09:00:00,76.7,73.2,29.74,SW,222,1.0,4.0,89,0.01,RA,,0.16,WeatherDisplay:10.37,2013-03-12 23:00:00,
2013-03-13 09:10:00,77.3,74.1,29.73,SW,216,0.0,3.0,90,0.00,RA,,0.16,WeatherDisplay:10.37,2013-03-12 23:10:00,
2013-03-13 09:20:00,78.0,74.5,29.73,WSW,243,1.0,5.0,89,0.00,RA,,0.16,WeatherDisplay:10.37,2013-03-12 23:20:00,
2013-03-13 09:25:00,78.4,74.9,29.73,SW,218,2.0,5.0,89,0.00,RA,,0.16,WeatherDisplay:10.37,2013-03-12 23:25:00,
2013-03-13 09:30:00,78.4,74.6,29.73,SW,225,2.0,7.0,88,0.00,RA,,0.16,WeatherDisplay:10.37,2013-03-12 23:30:00,
2013-03-13 09:35:00,78.8,74.9,29.73,SW,225,1.0,6.0,88,0.00,RA,,0.16,WeatherDisplay:10.37,2013-03-12 23:35:00,
2013-03-13 09:40:00,79.2,75.3,29.73,SSW,210,2.0,5.0,88,0.00,RA,,0.16,WeatherDisplay:10.37,2013-03-12 23:40:00,
2013-03-13 09:45:00,79.8,75.5,29.73,SSW,202,1.0,4.0,87,0.00,RA,,0.16,WeatherDisplay:10.37,2013-03-12 23:45:00,
2013-03-13 09:55:00,80.7,75.7,29.74,SSW,202,2.0,6.0,85,0.00,RA,,0.16,WeatherDisplay:10.37,2013-03-12 23:55:00,
2013-03-13 10:00:00,80.7,75.4,29.73,SW,214,2.0,6.0,84,0.00,RA,,0.16,WeatherDisplay:10.37,2013-03-13 00:00:00,
2013-03-13 10:10:00,80.3,75.1,29.74,SSW,204,3.0,7.0,84,0.00,RA,,0.16,WeatherDisplay:10.37,2013-03-13 00:10:00,
2013-03-13 10:15:00,79.7,74.8,29.74,South,190,3.0,5.0,85,0.04,RA,,0.20,WeatherDisplay:10.37,2013-03-13 00:15:00,
2013-03-13 10:20:00,79.2,74.7,29.73,SW,215,0.0,3.0,86,0.01,RA,,0.20,WeatherDisplay:10.37,2013-03-13 00:20:00,
2013-03-13 10:25:00,79.2,75.3,29.73,SSW,208,1.0,5.0,88,0.00,RA,,0.20,WeatherDisplay:10.37,2013-03-13 00:25:00,
2013-03-13 10:35:00,79.2,75.3,29.73,SW,222,1.0,4.0,88,0.00,RA,,0.20,WeatherDisplay:10.37,2013-03-13 00:35:00,
2013-03-13 10:40:00,79.1,75.2,29.73,SW,217,0.0,5.0,88,0.00,RA,,0.20,WeatherDisplay:10.37,2013-03-13 00:40:00,
2013-03-13 10:45:00,79.2,75.3,29.72,SW,225,1.0,4.0,88,0.00,RA,,0.20,WeatherDisplay:10.37,2013-03-13 00:45:00,
2013-03-13 10:50:00,79.4,75.5,29.72,SW,234,2.0,4.0,88,0.00,RA,,0.20,WeatherDisplay:10.37,2013-03-13 00:50:00,
2013-03-13 10:55:00,79.6,75.7,29.72,SW,230,0.0,2.0,88,0.00,RA,,0.20,WeatherDisplay:10.37,2013-03-13 00:55:00,
2013-03-13 11:00:00,80.2,76.3,29.72,SSW,206,1.0,2.0,88,0.00,RA,,0.20,WeatherDisplay:10.37,2013-03-13 01:00:00,
2013-03-13 11:05:00,80.6,76.3,29.72,SSW,201,0.0,3.0,87,0.00,RA,,0.20,WeatherDisplay:10.37,2013-03-13 01:05:00,
2013-03-13 11:10:00,81.0,76.7,29.72,SW,214,1.0,4.0,87,0.00,RA,,0.20,WeatherDisplay:10.37,2013-03-13 01:10:00,
2013-03-13 11:15:00,81.1,76.5,29.72,SSW,206,1.0,4.0,86,0.00,RA,,0.20,WeatherDisplay:10.37,2013-03-13 01:15:00,
2013-03-13 11:20:00,81.4,76.1,29.71,South,185,1.0,5.0,84,0.00,RA,,0.20,WeatherDisplay:10.37,2013-03-13 01:20:00,
2013-03-13 11:25:00,81.8,76.5,29.71,South,184,0.0,5.0,84,0.00,RA,,0.20,WeatherDisplay:10.37,2013-03-13 01:25:00,
2013-03-13 11:30:00,81.3,75.3,29.71,SSW,199,1.0,7.0,82,0.06,RA,,0.26,WeatherDisplay:10.37,2013-03-13 01:30:00,
2013-03-13 11:35:00,80.4,74.8,29.71,SW,216,0.0,1.0,83,0.00,RA,,0.26,WeatherDisplay:10.37,2013-03-13 01:35:00,
2013-03-13 11:40:00,80.3,75.4,29.71,SW,219,0.0,1.0,85,0.00,RA,,0.26,WeatherDisplay:10.37,2013-03-13 01:40:00,
2013-03-13 11:45:00,80.4,75.8,29.70,SSW,210,1.0,3.0,86,0.00,RA,,0.26,WeatherDisplay:10.37,2013-03-13 01:45:00,
2013-03-13 11:50:00,80.7,76.1,29.70,South,182,1.0,4.0,86,0.00,RA,,0.26,WeatherDisplay:10.37,2013-03-13 01:50:00,
2013-03-13 11:55:00,81.1,76.1,29.70,SSE,158,3.0,10.0,85,0.00,RA,,0.26,WeatherDisplay:10.37,2013-03-13 01:55:00,
2013-03-13 12:00:00,80.7,75.4,29.70,South,191,2.0,6.0,84,0.01,RA,,0.27,WeatherDisplay:10.37,2013-03-13 02:00:00,
2013-03-13 12:05:00,80.2,74.9,29.70,SSW,205,0.0,3.0,84,0.01,RA,,0.28,WeatherDisplay:10.37,2013-03-13 02:05:00,
2013-03-13 12:10:00,80.2,75.6,29.70,South,171,0.0,3.0,86,0.00,RA,,0.28,WeatherDisplay:10.37,2013-03-13 02:10:00,
2013-03-13 12:15:00,80.7,76.5,29.70,South,175,1.0,4.0,87,0.00,RA,,0.28,WeatherDisplay:10.37,2013-03-13 02:15:00,
2013-03-13 12:20:00,81.2,76.6,29.70,SW,223,1.0,4.0,86,0.00,RA,,0.28,WeatherDisplay:10.37,2013-03-13 02:20:00,
2013-03-13 12:30:00,81.0,75.3,29.70,SSW,210,2.0,9.0,83,0.00,-RA,,0.28,WeatherDisplay:10.37,2013-03-13 02:30:00,
2013-03-13 12:35:00,80.8,75.2,29.69,SW,219,1.0,10.0,83,0.00,-RA,,0.28,WeatherDisplay:10.37,2013-03-13 02:35:00,
2013-03-13 12:40:00,80.9,75.2,29.69,SSW,196,1.0,10.0,83,0.00,-RA,,0.28,WeatherDisplay:10.37,2013-03-13 02:40:00,
2013-03-13 12:45:00,81.0,75.3,29.69,SSW,193,1.0,5.0,83,0.00,-RA,,0.28,WeatherDisplay:10.37,2013-03-13 02:45:00,
2013-03-13 12:50:00,80.9,75.3,29.69,SSW,213,1.0,6.0,83,0.00,-RA,,0.28,WeatherDisplay:10.37,2013-03-13 02:50:00,
2013-03-13 12:55:00,81.3,76.0,29.69,SSW,211,1.0,4.0,84,0.00,-RA,,0.28,WeatherDisplay:10.37,2013-03-13 02:55:00,
2013-03-13 13:00:00,81.2,75.6,29.68,SW,227,1.0,7.0,83,0.00,-RA,,0.28,WeatherDisplay:10.37,2013-03-13 03:00:00,
2013-03-13 13:10:00,79.4,74.5,29.69,SW,219,0.0,6.0,85,0.00,RA,,0.31,WeatherDisplay:10.37,2013-03-13 03:10:00,
2013-03-13 13:15:00,79.0,74.5,29.69,SW,217,2.0,6.0,86,0.00,RA,,0.31,WeatherDisplay:10.37,2013-03-13 03:15:00,
2013-03-13 13:20:00,78.5,74.3,29.69,South,190,0.0,4.0,87,0.02,RA,,0.34,WeatherDisplay:10.37,2013-03-13 03:20:00,
2013-03-13 13:25:00,78.1,73.9,29.68,SE,126,0.0,4.0,87,0.01,RA,,0.35,WeatherDisplay:10.37,2013-03-13 03:25:00,
2013-03-13 13:30:00,77.8,74.0,29.68,SSE,165,0.0,4.0,88,0.00,RA,,0.35,WeatherDisplay:10.37,2013-03-13 03:30:00,
2013-03-13 13:35:00,77.9,74.1,29.68,SW,216,0.0,3.0,88,0.00,RA,,0.35,WeatherDisplay:10.37,2013-03-13 03:35:00,
2013-03-13 13:45:00,77.6,74.1,29.68,SW,229,0.0,2.0,89,0.00,RA,,0.35,WeatherDisplay:10.37,2013-03-13 03:45:00,
2013-03-13 13:50:00,77.6,74.1,29.68,SW,229,0.0,2.0,89,0.00,RA,,0.35,WeatherDisplay:10.37,2013-03-13 03:50:00,
2013-03-13 13:55:00,77.5,74.0,29.67,SW,234,0.0,4.0,89,0.00,RA,,0.35,WeatherDisplay:10.37,2013-03-13 03:55:00,
2013-03-13 14:00:00,77.7,74.5,29.67,SSW,206,0.0,5.0,90,0.00,RA,,0.35,WeatherDisplay:10.37,2013-03-13 04:00:00,
2013-03-13 14:05:00,78.2,75.1,29.67,SSE,165,0.0,1.0,90,0.00,RA,,0.35,WeatherDisplay:10.37,2013-03-13 04:05:00,
2013-03-13 14:10:00,78.3,75.1,29.67,SE,138,1.0,4.0,90,0.03,RA,,0.38,WeatherDisplay:10.37,2013-03-13 04:10:00,
2013-03-13 14:15:00,77.9,74.4,29.67,ESE,104,2.0,6.0,89,0.00,RA,,0.38,WeatherDisplay:10.37,2013-03-13 04:15:00,
2013-03-13 14:20:00,77.4,73.9,29.67,ESE,103,2.0,18.0,89,0.01,RA,,0.39,WeatherDisplay:10.37,2013-03-13 04:20:00,
2013-03-13 14:30:00,77.0,73.2,29.66,SE,126,1.0,7.0,88,0.00,RA,,0.39,WeatherDisplay:10.37,2013-03-13 04:30:00,
2013-03-13 14:35:00,76.9,73.0,29.66,South,183,0.0,3.0,88,0.00,RA,,0.39,WeatherDisplay:10.37,2013-03-13 04:35:00,
2013-03-13 14:40:00,76.9,73.1,29.66,South,189,2.0,9.0,88,0.00,RA,,0.39,WeatherDisplay:10.37,2013-03-13 04:40:00,
2013-03-13 14:50:00,77.0,73.2,29.66,SSE,157,1.0,6.0,88,0.00,RA,,0.39,WeatherDisplay:10.37,2013-03-13 04:50:00,
2013-03-13 14:55:00,77.3,73.5,29.66,SSE,160,0.0,3.0,88,0.00,RA,,0.39,WeatherDisplay:10.37,2013-03-13 04:55:00,
2013-03-13 15:00:00,77.7,73.9,29.66,SSE,147,1.0,3.0,88,0.00,RA,,0.39,WeatherDisplay:10.37,2013-03-13 05:00:00,
2013-03-13 15:05:00,78.2,74.4,29.65,SE,146,0.0,1.0,88,0.00,RA,,0.39,WeatherDisplay:10.37,2013-03-13 05:05:00,
2013-03-13 15:15:00,79.1,74.9,29.65,South,186,0.0,3.0,87,0.00,RA,,0.39,WeatherDisplay:10.37,2013-03-13 05:15:00,
2013-03-13 15:20:00,79.4,74.8,29.65,South,171,2.0,7.0,86,0.00,RA,,0.39,WeatherDisplay:10.37,2013-03-13 05:20:00,
2013-03-13 15:25:00,79.7,74.8,29.65,South,174,1.0,6.0,85,0.00,RA,,0.39,WeatherDisplay:10.37,2013-03-13 05:25:00,
2013-03-13 15:30:00,79.8,74.9,29.65,South,177,0.0,4.0,85,0.01,RA,,0.39,WeatherDisplay:10.37,2013-03-13 05:30:00,
2013-03-13 15:35:00,79.5,74.6,29.65,SSE,161,2.0,9.0,85,0.00,RA,,0.39,WeatherDisplay:10.37,2013-03-13 05:35:00,
2013-03-13 15:45:00,78.6,74.0,29.65,South,169,0.0,3.0,86,0.00,RA,,0.39,WeatherDisplay:10.37,2013-03-13 05:45:00,
2013-03-13 15:50:00,78.4,73.8,29.65,SSE,166,1.0,5.0,86,0.00,RA,,0.39,WeatherDisplay:10.37,2013-03-13 05:50:00,
2013-03-13 15:55:00,78.3,74.1,29.65,South,170,1.0,5.0,87,0.00,RA,,0.39,WeatherDisplay:10.37,2013-03-13 05:55:00,
2013-03-13 16:00:00,78.3,74.1,29.65,SSW,194,0.0,4.0,87,0.00,RA,,0.39,WeatherDisplay:10.37,2013-03-13 06:00:00,
2013-03-13 16:05:00,78.2,74.0,29.65,South,189,0.0,4.0,87,0.00,RA,,0.39,WeatherDisplay:10.37,2013-03-13 06:05:00,
2013-03-13 16:15:00,78.0,73.5,29.65,SE,138,0.0,5.0,86,0.00,RA,,0.39,WeatherDisplay:10.37,2013-03-13 06:15:00,
2013-03-13 16:20:00,78.1,73.5,29.65,South,173,0.0,6.0,86,0.00,RA,,0.39,WeatherDisplay:10.37,2013-03-13 06:20:00,
2013-03-13 16:25:00,78.3,73.4,29.65,SSW,193,1.0,7.0,85,0.00,RA,,0.39,WeatherDisplay:10.37,2013-03-13 06:25:00,
2013-03-13 16:30:00,78.7,73.8,29.65,SSW,204,0.0,4.0,85,0.00,RA,,0.39,WeatherDisplay:10.37,2013-03-13 06:30:00,
2013-03-13 16:35:00,78.9,73.7,29.65,SSW,209,1.0,5.0,84,0.00,RA,,0.39,WeatherDisplay:10.37,2013-03-13 06:35:00,
2013-03-13 16:40:00,79.1,73.5,29.65,SSW,209,1.0,7.0,83,0.00,RA,,0.39,WeatherDisplay:10.37,2013-03-13 06:40:00,
2013-03-13 16:50:00,79.1,73.5,29.65,SSE,150,1.0,7.0,83,0.00,RA,,0.39,WeatherDisplay:10.37,2013-03-13 06:50:00,
2013-03-13 16:55:00,79.0,73.4,29.65,SSE,160,0.0,4.0,83,0.00,RA,,0.39,WeatherDisplay:10.37,2013-03-13 06:55:00,
2013-03-13 17:00:00,78.9,73.3,29.66,SSE,152,0.0,3.0,83,0.00,RA,,0.39,WeatherDisplay:10.37,2013-03-13 07:00:00,
2013-03-13 17:10:00,78.8,73.2,29.66,SSE,167,0.0,2.0,83,0.00,RA,,0.39,WeatherDisplay:10.37,2013-03-13 07:10:00,
2013-03-13 17:15:00,78.7,73.4,29.66,SSW,198,2.0,7.0,84,0.00,RA,,0.39,WeatherDisplay:10.37,2013-03-13 07:15:00,
2013-03-13 17:20:00,78.1,73.2,29.66,SW,218,2.0,5.0,85,0.01,RA,,0.40,WeatherDisplay:10.37,2013-03-13 07:20:00,
2013-03-13 17:25:00,77.5,73.0,29.66,SW,220,0.0,5.0,86,0.00,RA,,0.40,WeatherDisplay:10.37,2013-03-13 07:25:00,
2013-03-13 17:30:00,77.1,72.9,29.67,SW,230,0.0,4.0,87,0.00,RA,,0.40,WeatherDisplay:10.37,2013-03-13 07:30:00,
2013-03-13 17:35:00,76.9,72.7,29.66,SW,229,0.0,2.0,87,0.00,RA,,0.40,WeatherDisplay:10.37,2013-03-13 07:35:00,
2013-03-13 17:40:00,76.7,72.9,29.66,SW,223,0.0,1.0,88,0.00,RA,,0.40,WeatherDisplay:10.37,2013-03-13 07:40:00,
2013-03-13 17:45:00,76.8,72.9,29.66,SW,230,0.0,2.0,88,0.00,RA,,0.40,WeatherDisplay:10.37,2013-03-13 07:45:00,
2013-03-13 17:50:00,76.7,72.9,29.66,SW,221,0.0,3.0,88,0.00,RA,,0.40,WeatherDisplay:10.37,2013-03-13 07:50:00,
2013-03-13 17:55:00,76.7,73.2,29.67,SSW,207,2.0,6.0,89,0.00,RA,,0.40,WeatherDisplay:10.37,2013-03-13 07:55:00,
2013-03-13 18:00:00,76.7,73.2,29.67,SW,225,3.0,7.0,89,0.00,RA,,0.40,WeatherDisplay:10.37,2013-03-13 08:00:00,
2013-03-13 18:10:00,76.4,72.6,29.67,SW,236,1.0,7.0,88,0.00,RA,,0.40,WeatherDisplay:10.37,2013-03-13 08:10:00,
2013-03-13 18:15:00,76.2,72.4,29.67,SW,233,1.0,7.0,88,0.00,RA,,0.40,WeatherDisplay:10.37,2013-03-13 08:15:00,
2013-03-13 18:20:00,76.0,72.2,29.67,SW,225,2.0,15.0,88,0.00,RA,,0.40,WeatherDisplay:10.37,2013-03-13 08:20:00,
2013-03-13 18:25:00,75.8,71.9,29.68,SW,221,2.0,12.0,88,0.00,RA,,0.40,WeatherDisplay:10.37,2013-03-13 08:25:00,
2013-03-13 18:35:00,75.4,71.6,29.68,SW,222,1.0,6.0,88,0.00,RA,,0.40,WeatherDisplay:10.37,2013-03-13 08:35:00,
2013-03-13 18:40:00,75.3,71.5,29.68,SW,226,3.0,9.0,88,0.00,RA,,0.40,WeatherDisplay:10.37,2013-03-13 08:40:00,
2013-03-13 18:45:00,75.0,71.6,29.68,SW,234,2.0,7.0,89,0.00,RA,,0.40,WeatherDisplay:10.37,2013-03-13 08:45:00,
2013-03-13 18:50:00,74.9,71.4,29.69,WSW,240,3.0,9.0,89,0.00,RA,,0.40,WeatherDisplay:10.37,2013-03-13 08:50:00,
2013-03-13 18:55:00,74.7,71.2,29.69,SW,230,2.0,5.0,89,0.00,RA,,0.40,WeatherDisplay:10.37,2013-03-13 08:55:00,
2013-03-13 19:00:00,74.5,71.0,29.69,SSW,213,0.0,5.0,89,0.00,RA,,0.40,WeatherDisplay:10.37,2013-03-13 09:00:00,
2013-03-13 19:10:00,74.1,71.0,29.69,SW,229,1.0,4.0,90,0.00,RA,,0.40,WeatherDisplay:10.37,2013-03-13 09:10:00,
2013-03-13 19:15:00,73.9,70.8,29.69,WSW,252,0.0,3.0,90,0.00,RA,,0.40,WeatherDisplay:10.37,2013-03-13 09:15:00,
2013-03-13 19:25:00,73.7,70.6,29.69,SW,230,1.0,5.0,90,0.00,RA,,0.40,WeatherDisplay:10.37,2013-03-13 09:25:00,
2013-03-13 19:30:00,73.6,70.5,29.70,SW,225,0.0,3.0,90,0.00,RA,,0.40,WeatherDisplay:10.37,2013-03-13 09:30:00,
2013-03-13 19:35:00,73.6,70.8,29.70,WSW,237,0.0,2.0,91,0.01,RA,,0.41,WeatherDisplay:10.37,2013-03-13 09:35:00,
2013-03-13 19:40:00,73.6,70.8,29.70,WSW,241,0.0,3.0,91,0.00,RA,,0.41,WeatherDisplay:10.37,2013-03-13 09:40:00,
2013-03-13 19:45:00,73.6,70.8,29.69,SW,221,0.0,4.0,91,0.01,RA,,0.42,WeatherDisplay:10.37,2013-03-13 09:45:00,
2013-03-13 19:50:00,73.6,70.8,29.70,SSW,213,0.0,2.0,91,0.00,RA,,0.42,WeatherDisplay:10.37,2013-03-13 09:50:00,
2013-03-13 19:55:00,73.5,70.7,29.70,SSW,193,0.0,3.0,91,0.00,RA,,0.42,WeatherDisplay:10.37,2013-03-13 09:55:00,
2013-03-13 20:00:00,73.5,70.7,29.70,SSE,147,0.0,2.0,91,0.00,RA,,0.42,WeatherDisplay:10.37,2013-03-13 10:00:00,
2013-03-13 20:10:00,73.6,70.8,29.70,South,181,0.0,4.0,91,0.00,RA,,0.43,WeatherDisplay:10.37,2013-03-13 10:10:00,
2013-03-13 20:15:00,73.6,70.8,29.70,SW,223,0.0,1.0,91,0.00,RA,,0.43,WeatherDisplay:10.37,2013-03-13 10:15:00,
2013-03-13 20:20:00,73.5,70.7,29.71,SW,226,0.0,3.0,91,0.00,RA,,0.43,WeatherDisplay:10.37,2013-03-13 10:20:00,
2013-03-13 20:25:00,73.5,71.1,29.71,SW,214,0.0,3.0,92,0.00,RA,,0.43,WeatherDisplay:10.37,2013-03-13 10:25:00,
2013-03-13 20:30:00,73.6,71.1,29.71,SSW,199,0.0,3.0,92,0.00,RA,,0.43,WeatherDisplay:10.37,2013-03-13 10:30:00,
2013-03-13 20:35:00,73.6,71.1,29.71,SW,215,1.0,3.0,92,0.00,RA,,0.43,WeatherDisplay:10.37,2013-03-13 10:35:00,
2013-03-13 20:45:00,73.6,71.1,29.71,SW,233,0.0,2.0,92,0.00,RA,,0.43,WeatherDisplay:10.37,2013-03-13 10:45:00,
2013-03-13 20:50:00,73.6,71.1,29.71,SW,215,1.0,4.0,92,0.00,RA,,0.43,WeatherDisplay:10.37,2013-03-13 10:50:00,
2013-03-13 20:55:00,73.6,71.1,29.71,SSW,208,0.0,3.0,92,0.00,RA,,0.43,WeatherDisplay:10.37,2013-03-13 10:55:00,
2013-03-13 21:00:00,73.6,71.1,29.71,SSW,206,0.0,2.0,92,0.01,RA,,0.43,WeatherDisplay:10.37,2013-03-13 11:00:00,
2013-03-13 21:10:00,73.7,71.2,29.71,SSW,200,0.0,2.0,92,0.00,RA,,0.43,WeatherDisplay:10.37,2013-03-13 11:10:00,
2013-03-13 21:15:00,73.7,71.2,29.71,SSW,209,1.0,3.0,92,0.00,RA,,0.43,WeatherDisplay:10.37,2013-03-13 11:15:00,
2013-03-13 21:20:00,73.8,71.3,29.72,SSW,205,0.0,3.0,92,0.00,RA,,0.43,WeatherDisplay:10.37,2013-03-13 11:20:00,
2013-03-13 21:25:00,73.8,71.3,29.72,SSW,198,0.0,3.0,92,0.01,RA,,0.44,WeatherDisplay:10.37,2013-03-13 11:25:00,
2013-03-13 21:30:00,73.9,71.4,29.73,SSW,209,0.0,4.0,92,0.02,RA,,0.46,WeatherDisplay:10.37,2013-03-13 11:30:00,
2013-03-13 21:35:00,74.0,71.5,29.73,SW,224,2.0,9.0,92,0.00,RA,,0.46,WeatherDisplay:10.37,2013-03-13 11:35:00,
2013-03-13 21:40:00,74.1,71.6,29.73,SSW,200,1.0,9.0,92,0.00,RA,,0.46,WeatherDisplay:10.37,2013-03-13 11:40:00,
2013-03-13 21:50:00,74.1,71.6,29.72,SSW,197,0.0,2.0,92,0.00,RA,,0.46,WeatherDisplay:10.37,2013-03-13 11:50:00,
2013-03-13 21:55:00,74.2,71.7,29.72,SSE,167,1.0,5.0,92,0.00,RA,,0.46,WeatherDisplay:10.37,2013-03-13 11:55:00,
2013-03-13 22:00:00,74.2,71.7,29.73,South,174,1.0,4.0,92,0.00,RA,,0.46,WeatherDisplay:10.37,2013-03-13 12:00:00,
2013-03-13 22:10:00,73.9,71.1,29.73,SSW,202,5.0,12.0,91,0.00,RA,,0.46,WeatherDisplay:10.37,2013-03-13 12:10:00,
2013-03-13 22:15:00,73.9,71.1,29.73,South,191,2.0,5.0,91,0.00,RA,,0.46,WeatherDisplay:10.37,2013-03-13 12:15:00,
2013-03-13 22:20:00,73.8,71.0,29.73,SSE,168,1.0,6.0,91,0.00,RA,,0.46,WeatherDisplay:10.37,2013-03-13 12:20:00,
2013-03-13 22:25:00,73.9,71.1,29.73,South,183,0.0,10.0,91,0.00,RA,,0.46,WeatherDisplay:10.37,2013-03-13 12:25:00,
2013-03-13 22:30:00,73.8,70.7,29.73,SSW,197,1.0,7.0,90,0.00,RA,,0.46,WeatherDisplay:10.37,2013-03-13 12:30:00,
2013-03-13 22:35:00,73.8,70.6,29.73,South,175,1.0,5.0,90,0.00,RA,,0.46,WeatherDisplay:10.37,2013-03-13 12:35:00,
2013-03-13 22:40:00,73.8,70.4,29.73,SSE,161,1.0,5.0,89,0.00,RA,,0.46,WeatherDisplay:10.37,2013-03-13 12:40:00,
2013-03-13 22:45:00,73.9,70.4,29.73,South,172,0.0,4.0,89,0.00,RA,,0.46,WeatherDisplay:10.37,2013-03-13 12:45:00,
2013-03-13 22:50:00,74.0,70.6,29.72,SSW,197,2.0,5.0,89,0.00,RA,,0.46,WeatherDisplay:10.37,2013-03-13 12:50:00,
2013-03-13 22:55:00,74.0,70.6,29.72,South,181,2.0,6.0,89,0.00,RA,,0.46,WeatherDisplay:10.37,2013-03-13 12:55:00,
2013-03-13 23:00:00,74.0,70.6,29.72,SSE,159,1.0,5.0,89,0.01,RA,,0.46,WeatherDisplay:10.37,2013-03-13 13:00:00,
2013-03-13 23:10:00,74.3,70.5,29.71,SW,214,1.0,6.0,88,0.00,RA,,0.46,WeatherDisplay:10.37,2013-03-13 13:10:00,
2013-03-13 23:15:00,74.5,70.7,29.71,SW,220,1.0,6.0,88,0.00,RA,,0.46,WeatherDisplay:10.37,2013-03-13 13:15:00,
2013-03-13 23:25:00,74.6,71.1,29.71,SW,227,0.0,3.0,89,0.00,RA,,0.46,WeatherDisplay:10.37,2013-03-13 13:25:00,
2013-03-13 23:30:00,74.5,71.1,29.71,WSW,239,0.0,3.0,89,0.00,RA,,0.46,WeatherDisplay:10.37,2013-03-13 13:30:00,
2013-03-13 23:35:00,74.5,71.0,29.71,WSW,238,1.0,3.0,89,0.00,RA,,0.46,WeatherDisplay:10.37,2013-03-13 13:35:00,
2013-03-13 23:40:00,74.5,71.0,29.71,SW,231,0.0,1.0,89,0.00,RA,,0.46,WeatherDisplay:10.37,2013-03-13 13:40:00,
2013-03-13 23:45:00,74.4,70.9,29.71,SW,223,0.0,2.0,89,0.00,RA,,0.46,WeatherDisplay:10.37,2013-03-13 13:45:00,
2013-03-13 23:55:00,74.5,71.4,29.70,SSW,199,1.0,2.0,90,0.00,RA,,0.46,WeatherDisplay:10.37,2013-03-13 13:55:00,